Regional Weather Roundup
Issued by NWS

Home | Current Version | Previous Version | Graphics & Text | Print | Product List | Glossary On
Versions: 1 2 3 4 5 6 7 8 9 10 11 12 13 14 15 16 17 18 19 20 21 22 23 24 25 26 27
000
ASUS45 KPSR 011010
RWRAZ

ARIZONA HOURLY REGIONAL WEATHER ROUNDUP
NATIONAL WEATHER SERVICE PHOENIX AZ
300 AM MST SUN MAY 01 2016

NOTE: FAIR INDICATES FEW OR NO CLOUDS BELOW 12,000 FEET WITH NO
SIGNIFICANT WEATHER AND/OR OBSTRUCTIONS TO VISIBILITY.

AZZ001>003-036-011100-
NORTHWEST ARIZONA

CITY           SKY/WX    TMP DP  RH WIND       PRES   REMARKS
BULLHEAD CITY  MOCLDY    64  48  55 N15       29.80S
KINGMAN        PTCLDY    47  43  86 CALM      29.84S
$$

AZZ004>008-015-016-018-011100-
NORTH CENTRAL ARIZONA

CITY           SKY/WX    TMP DP  RH WIND       PRES   REMARKS
GRAND CANYON   CLOUDY    41  35  79 NE9       29.87F
WILLIAMS       MIX PCPN  36  34  93 SE5       29.93S WCI  32
PRESCOTT       CLOUDY    41  40  96 SW3       29.84R
FLAGSTAFF      MIX PCPN  32  32 100 E7        29.85F WCI  26
PAYSON         CLOUDY    43  37  81 E5        29.85S
PAGE           PTCLDY    48  39  71 NW3       29.86S
$$

AZZ009>014-017-011100-
NORTHEAST ARIZONA

CITY           SKY/WX    TMP DP  RH WIND       PRES   REMARKS
WINSLOW        LGT RAIN  41  38  89 W13       29.83F
SAINT JOHNS    MOCLDY    42  38  85 S5        29.84F
WINDOW ROCK    LGT SNOW  34  32  92 S3        29.90F FOG
SHOW LOW       PTCLDY    32  32 100 S5        29.87S WCI  27
$$

AZZ023-011100-
GREATER PHOENIX AREA

CITY           SKY/WX    TMP DP  RH WIND       PRES   REMARKS
PHOENIX        MOCLDY    60  47  61 E5        29.74R
BUCKEYE        CLOUDY    55  54  94 N8        29.76R
LUKE AFB       MOCLDY    57  48  70 N6        29.74R
DEER VALLEY    MOCLDY    56  44  64 E3        29.75R
SCOTTSDALE     PTCLDY    57  47  69 CALM      29.76S
MESA-GATEWAY   MOCLDY    57  45  62 E6        29.76R
$$

AZZ027-028-011100-
SOUTHWEST MARICOPA COUNTY AND PINAL COUNTY

CITY           SKY/WX    TMP DP  RH WIND       PRES   REMARKS
CASA GRANDE    CLOUDY    61  45  55 CALM      29.76S
GILA BEND      MOCLDY    58  51  78 CALM      29.72S
$$

AZZ503-504-507>509-011100-
SOUTHEAST ARIZONA

CITY           SKY/WX    TMP DP  RH WIND       PRES   REMARKS
TUCSON         CLEAR     56  33  42 SE6       29.82S
DAVIS-MONTHAN  PTCLDY    53  33  47 S5        29.80S
NOGALES        CLEAR     48  35  60 CALM      29.84R
SIERRA VISTA   CLEAR     51  34  51 S12       29.86R
DOUGLAS        CLEAR     51  33  50 W7        29.86R
SAFFORD        CLOUDY    52  43  71 N3        29.80R
$$

AZZ020-021-025-026-031-011100-
SOUTHWEST ARIZONA

CITY           SKY/WX    TMP DP  RH WIND       PRES   REMARKS
YUMA           CLEAR     63  46  54 NW5       29.73F
$$

CAZ031-033-041-043-047-048-061-011100-
SOUTHERN CALIFORNIA

CITY           SKY/WX    TMP DP  RH WIND       PRES   REMARKS
DOWNTOWN L.A.  CLEAR     59  51  75 E3        29.84S
L.A. AIRPORT   PTCLDY    57  50  77 CALM      29.85S
SAN DIEGO      PTCLDY    61  53  75 S3        29.86F
BURBANK        CLEAR     55  45  68 CALM      29.84S
ONTARIO        MOCLDY    54  45  71 CALM      29.84F
RIVERSIDE      CLEAR     54  47  77 CALM      29.85S
PALM SPRINGS   CLEAR     65  47  52 CALM      29.77S
EL CENTRO NAS  CLEAR     62  44  51 W8        29.75F
IMPERIAL       CLEAR     61  46  57 W6        29.73S
BLYTHE         PTCLDY    58  46  64 NE7       29.74F
NEEDLES        CLEAR     62  48  60 N7        29.77S
$$

NVZ020-UTZ003-011100-
SOUTHERN NEVADA-UTAH

CITY           SKY/WX    TMP DP  RH WIND       PRES   REMARKS
LAS VEGAS      MOCLDY    56  49  77 CALM      29.80S
SALT LAKE CITY CLOUDY    50  23  34 E8G18     30.02R
$$

NMZ009-TXZ055-011100-
NEW MEXICO-WEST TEXAS

CITY           SKY/WX    TMP DP  RH WIND       PRES   REMARKS
ALBUQUERQUE    CLOUDY    43  32  65 E35G45    29.93R
EL PASO        PTCLDY    61  29  29 E7        29.82R
$$


........................KEY........................
SKY/WX - SKY CONDITION/WEATHER
TMP    - TEMPERATURE IN FAHRENHEIT
DP     - DEW POINT IN FAHRENHEIT
RH     - RELATIVE HUMIDITY IN PERCENT
WIND   - DIRECTION AND SPEED IN MILES PER HOUR (MPH)
VRB    - VARIABLE WIND DIRECTION
PRES   - MEAN SEA LEVEL PRESSURE IN INCHES OF MERCURY
         F - FALLING PRESSURE   R - RISING PRESSURE
         S - STEADY PRESSURE
VSB    - VISIBILITY IN MILES
HX     - HEAT INDEX IN FAHRENHEIT
WCI    - WIND CHILL INDEX IN FAHRENHEIT
TC     - TEMPERATURE IN CELSIUS WHICH IS ALSO KNOWN AS
         TEMPERATURE IN CENTIGRADE
AFB    - AIR FORCE BASE
         LUKE AFB IS LUKE AIR FORCE BASE
         DAVIS-MONTHAN IS DAVIS-MONTHAN AIR FORCE BASE
NAS    - NAVAL AIR STATION
         EL CENTRO NAS IS EL CENTRO NAVAL AIR STATION
N/A    - NOT AVAILABLE





USA.gov is the U.S. government's official web portal to all federal, state and local government web resources and services.